Theta_e
336 335 334 334 334 334 334 334 335 335 335 335 335 334 333 333 333 333 333 334 334 335 336 336 335 334 334 335 335 334 332 331 332 333 334 333 333 333 333 334 335 334 334 335 336 336 338 341 340 338 336 336 337 337 336 335 335 336 336 336 336 337 338
336 336 336 336 335 336 336 336 336 336 336 336 336 335 334 334 334 334 333 333 334 334 335 335 334 334 335 335 334 333 332 331 332 333 335 334 333 332 333 334 334 334 333 334 335 334 336 340 344 343 339 336 338 336 334 334 334 334 334 335 336 338 339
337 337 337 337 337 337 337 336 336 336 337 337 337 337 335 334 334 335 334 334 334 334 334 334 334 334 335 335 334 333 332 331 331 333 334 335 334 333 334 333 333 333 332 333 335 335 335 335 339 342 336 336 340 337 334 334 333 333 334 334 336 338 339
337 337 337 337 337 337 337 337 336 337 337 337 337 337 337 335 335 336 336 335 335 335 334 335 335 334 334 334 335 334 333 332 331 331 332 334 335 335 335 334 332 332 332 332 334 335 336 335 337 339 335 335 339 338 335 334 333 333 333 334 336 338 338
336 336 337 337 337 337 337 337 337 337 337 337 337 337 337 337 336 337 337 336 336 336 336 336 336 335 334 334 335 335 334 332 331 331 331 333 333 334 336 335 334 332 331 331 332 333 335 336 337 337 335 336 338 337 335 334 333 333 333 336 338 339 337
336 336 336 337 337 337 337 337 337 337 336 336 336 337 337 337 337 337 337 337 336 336 336 336 336 336 336 335 335 335 334 333 332 331 331 331 332 332 333 334 335 333 331 330 331 333 335 336 335 335 335 336 337 336 335 334 335 335 335 336 337 338 336
335 335 335 336 336 337 336 337 337 336 336 336 336 336 337 337 337 337 337 337 337 337 336 336 337 336 336 337 336 335 335 334 333 333 332 332 332 332 332 334 335 334 331 330 331 332 335 336 335 336 337 337 336 335 334 335 335 337 337 336 336 337 335
333 334 334 335 335 336 336 336 336 336 336 337 337 336 337 336 337 337 337 337 337 337 337 337 337 337 337 338 337 337 336 335 335 334 333 334 334 334 334 334 335 334 332 331 330 333 335 336 334 335 337 339 339 337 334 335 335 336 336 336 335 335 334
333 333 333 333 334 335 335 335 335 336 336 336 336 336 336 336 336 337 337 337 337 337 337 337 337 338 338 338 338 338 337 336 336 335 335 335 334 335 335 335 335 335 334 332 331 332 333 334 334 334 336 338 340 342 340 341 340 337 336 335 334 334 335
331 331 331 332 332 332 332 333 333 334 334 335 335 335 336 336 335 336 336 336 336 336 336 337 337 337 338 338 338 339 338 337 337 336 336 336 336 335 335 335 335 335 334 332 330 330 332 334 335 334 335 336 338 342 344 347 345 337 335 336 335 334 335
330 330 330 330 330 330 331 331 331 332 332 333 334 334 334 334 334 335 335 336 336 335 335 336 336 336 336 336 337 338 338 338 338 337 337 336 336 336 336 335 335 334 334 333 330 328 329 334 335 335 335 335 335 339 339 342 342 335 333 336 336 335 335
329 329 329 329 330 330 330 331 331 331 331 332 332 332 332 333 333 334 334 335 335 335 335 335 336 335 334 334 335 337 337 337 338 337 337 337 336 336 336 336 335 334 333 334 333 330 328 331 334 335 335 334 334 337 336 336 340 337 334 334 335 335 336
328 328 329 329 329 330 330 330 330 330 330 331 331 332 332 332 332 333 333 334 334 334 334 334 335 335 334 334 334 335 336 336 336 337 337 338 337 337 337 336 335 334 333 333 334 333 329 329 332 334 335 335 335 337 337 335 337 336 334 333 333 334 335
327 328 328 328 329 329 329 329 329 329 329 330 330 331 331 332 332 332 332 332 332 332 333 333 333 333 334 334 334 334 335 335 335 336 337 337 337 337 337 336 335 333 332 332 333 333 331 328 330 333 335 335 335 337 337 336 334 332 333 333 333 333 334
327 327 328 327 327 328 328 328 328 328 329 329 329 329 329 330 331 331 331 332 332 332 332 333 333 333 333 334 334 333 333 334 334 334 335 335 336 336 336 336 335 333 332 332 332 333 332 329 329 332 334 335 335 336 336 337 335 332 332 333 333 334 335
326 326 326 326 326 326 327 327 327 328 328 328 328 327 327 328 328 329 330 331 331 331 332 332 332 332 333 333 333 333 333 332 332 332 333 333 334 335 335 335 335 334 333 332 332 332 333 331 330 332 333 335 336 336 337 338 337 334 333 333 334 334 335
325 324 324 324 324 325 325 325 326 327 327 327 327 326 326 326 326 326 327 328 329 329 330 330 331 331 332 332 332 332 332 332 331 331 332 332 332 333 334 335 335 335 334 333 333 332 332 332 331 332 334 336 336 336 337 337 337 336 334 333 332 332 333
323 323 323 322 323 323 324 325 325 325 326 326 325 325 324 324 324 324 325 325 326 326 327 327 328 329 331 331 331 331 331 331 331 331 331 332 332 332 333 334 334 334 334 333 333 332 332 332 332 333 334 336 336 336 337 337 337 337 335 333 331 331 332
322 322 322 322 323 323 323 323 323 324 325 325 324 323 323 323 323 323 323 323 323 323 323 324 324 325 327 328 330 330 330 330 330 331 331 331 332 332 332 333 334 335 334 333 333 333 332 332 332 333 334 336 336 336 337 336 336 335 333 333 331 330 333
322 322 322 322 321 321 322 323 323 324 324 324 323 323 322 322 321 321 320 320 320 320 320 321 321 321 321 322 325 327 329 330 329 329 329 330 330 331 332 333 334 335 334 333 333 333 332 332 332 333 334 335 336 337 336 336 335 333 332 332 331 331 333
321 321 321 320 320 321 322 323 323 323 323 323 322 322 321 320 320 319 318 318 318 318 317 317 318 318 318 318 320 322 324 326 327 327 328 328 328 329 330 331 332 333 334 334 333 332 332 332 332 332 333 333 335 336 336 335 334 332 331 331 330 331 330
320 320 320 319 320 321 321 322 322 322 321 321 321 320 319 319 318 317 317 317 317 316 315 316 316 316 317 317 318 319 320 321 322 323 325 327 327 328 328 329 330 331 333 333 333 332 332 331 331 331 332 332 333 334 335 334 332 331 330 330 330 329 328
319 319 319 319 320 321 320 320 320 319 320 320 320 320 319 318 317 317 317 317 316 315 315 315 315 315 315 316 317 318 318 319 320 320 321 323 325 327 327 328 330 330 331 332 333 333 333 332 331 331 331 331 332 333 333 332 331 331 331 330 330 329 328
318 318 318 319 320 320 319 319 318 317 318 319 320 319 318 317 317 316 316 316 316 315 314 314 314 313 314 314 315 316 317 318 319 319 319 320 321 324 326 327 329 330 330 330 331 332 333 333 332 331 331 331 331 332 333 332 331 331 331 331 330 329 328
318 318 318 318 319 319 319 319 317 315 316 319 319 318 316 316 316 316 316 316 316 315 314 313 312 312 313 313 314 315 315 316 317 317 318 318 319 321 323 325 327 328 329 330 331 331 331 333 333 332 331 331 331 332 332 332 332 332 331 331 329 329 329
317 317 317 317 318 318 318 317 315 314 315 317 317 315 315 315 316 316 316 315 315 315 314 312 311 311 312 313 314 315 315 316 316 317 318 318 320 321 321 322 324 327 328 329 330 330 331 332 332 332 332 331 331 331 332 332 332 332 333 332 330 329 330
317 317 317 316 316 316 315 314 313 313 314 314 314 314 315 316 316 316 316 315 314 314 313 312 311 310 311 312 314 315 315 317 318 319 320 321 322 323 323 322 323 325 327 328 328 330 330 331 331 332 332 331 330 331 331 332 332 332 331 331 330 330 331
316 316 316 315 315 314 313 313 312 312 312 312 312 313 314 315 316 315 315 314 313 313 312 311 310 309 309 311 314 314 315 317 318 319 321 322 323 323 324 324 323 324 326 327 328 329 330 330 331 331 331 330 330 331 331 332 332 330 330 330 330 331 331
316 315 315 314 314 313 313 312 312 312 311 311 311 312 313 315 315 315 314 313 313 312 311 310 310 309 308 310 313 314 315 316 317 318 319 321 322 322 322 324 324 325 326 326 327 328 329 330 330 329 328 328 329 330 331 331 330 329 329 330 330 330 331
315 315 314 313 313 312 312 312 311 311 311 311 311 311 313 314 314 314 313 313 312 311 310 309 309 308 307 309 312 314 314 315 316 317 318 319 321 322 322 323 324 325 326 327 327 328 328 328 328 327 326 325 325 327 328 328 328 328 329 330 329 329 328
315 314 313 313 312 312 312 311 311 311 310 310 311 311 313 314 314 313 313 312 312 311 310 309 308 308 307 308 311 313 313 314 315 316 317 318 319 321 322 322 322 324 325 326 326 326 326 325 325 324 323 322 321 321 322 323 324 325 325 324 324 324 323
314 313 313 312 312 312 311 311 311 311 310 310 310 311 313 314 313 313 312 312 312 311 310 309 308 307 306 307 311 312 313 314 314 315 316 317 318 319 320 321 321 321 322 323 324 324 323 322 322 320 320 321 319 317 318 321 322 321 321 319 318 319 318
314 313 313 312 312 311 311 311 311 310 310 310 310 311 313 313 313 313 312 312 311 310 310 309 308 307 306 307 310 312 312 313 314 314 315 316 317 318 318 318 319 319 320 320 321 321 319 319 319 316 314 315 314 312 313 316 316 316 316 314 313 313 313
314 313 313 312 312 311 311 311 310 310 310 309 310 311 312 312 312 312 312 311 311 310 310 310 309 307 306 306 309 311 311 312 313 313 313 314 316 317 317 317 317 317 318 318 318 318 316 316 316 314 312 313 314 311 310 310 310 310 310 309 308 308 308
313 313 312 312 311 311 311 311 310 310 309 309 309 310 311 311 312 311 311 310 310 310 310 310 309 308 306 306 308 311 311 312 313 313 313 313 314 316 316 317 317 317 318 317 316 316 315 314 314 314 312 313 315 313 310 308 307 308 307 306 304 304 303
313 312 312 312 311 311 310 310 310 310 309 309 309 310 311 311 311 310 310 310 310 310 310 310 309 308 306 306 308 311 311 312 313 313 313 312 313 314 315 317 317 317 318 317 315 315 316 315 314 313 312 312 313 312 308 306 305 304 303 302 301 301 301
312 312 312 311 311 311 310 310 310 310 309 309 309 310 311 311 310 310 310 310 310 310 310 309 309 308 307 306 308 310 311 312 312 313 313 312 312 313 314 316 317 317 317 316 315 315 315 314 314 313 311 309 309 307 306 304 304 303 302 301 301 301 300
Wind_Speed
19 19 18 18 19 19 20 20 20 20 21 21 21 20 20 19 19 19 20 21 22 21 21 22 22 21 21 20 20 19 18 17 18 18 17 16 15 15 15 15 13 11 10 9 10 7 2 1 4 6 9 10 11 12 12 13 13 13 14 13 13 13 12
18 18 17 17 17 18 19 19 19 19 19 21 22 22 22 22 21 21 20 21 23 22 21 21 21 20 20 21 21 20 19 19 18 18 18 18 17 15 14 14 13 12 10 8 10 11 7 3 3 3 5 6 7 9 11 13 14 14 15 14 14 13 12
17 16 16 16 17 17 18 18 18 19 19 19 20 21 22 24 24 23 22 21 22 23 23 22 21 20 20 21 21 20 20 19 19 18 19 19 19 17 15 13 13 13 10 6 7 10 8 5 3 4 5 5 5 7 8 10 12 13 14 15 14 13 12
16 15 15 16 17 18 19 19 18 18 18 18 18 19 20 22 24 24 23 22 21 22 24 23 22 20 20 21 22 22 21 21 20 20 19 19 19 19 18 17 16 15 12 8 8 8 6 5 4 3 6 6 6 8 7 6 8 10 12 12 12 11 10
13 13 14 14 14 16 18 19 19 18 18 18 18 18 20 21 23 24 23 22 21 22 23 23 22 21 20 20 23 23 22 22 21 21 21 20 19 20 20 19 19 18 15 12 10 8 8 9 7 5 6 5 5 7 7 6 7 8 9 9 8 8 8
12 13 13 13 13 14 16 19 20 19 19 18 18 18 18 19 21 24 24 23 23 22 22 22 22 21 20 20 22 24 24 23 22 22 22 22 21 21 21 21 20 20 18 15 12 10 11 11 8 6 5 5 5 6 6 6 6 7 8 8 8 8 7
11 12 12 13 13 13 14 15 17 18 18 19 18 17 17 16 18 21 23 24 25 24 23 22 22 22 21 20 20 22 24 24 24 23 23 24 24 23 22 22 22 21 20 18 16 13 13 12 10 8 6 4 5 5 4 4 5 6 7 7 7 8 7
11 11 11 12 12 13 12 12 12 13 15 16 16 16 16 16 17 19 21 23 24 24 23 22 22 23 23 22 21 21 22 23 24 25 25 25 25 25 24 23 23 23 22 20 19 16 14 14 12 9 8 4 2 3 3 3 5 7 9 8 7 8 8
10 9 10 10 11 11 11 11 12 12 12 13 14 15 15 16 17 18 19 20 21 22 23 23 23 23 24 24 24 23 23 22 23 25 25 25 26 25 25 24 24 24 23 22 21 18 16 16 15 13 10 8 4 2 2 2 3 5 8 7 8 9 10
8 8 8 8 9 9 9 10 11 11 12 13 13 14 15 15 16 17 18 19 19 20 21 22 23 23 24 25 25 25 25 23 24 25 25 25 25 25 25 25 25 25 24 23 22 21 18 17 16 15 13 11 8 5 2 2 2 1 2 5 7 7 10
8 8 8 8 9 9 9 9 10 10 11 11 12 12 12 13 13 14 16 17 19 20 20 21 22 22 22 23 24 25 26 25 25 26 26 25 25 25 25 26 25 25 25 25 24 23 21 19 16 15 15 12 11 9 6 3 1 1 1 4 7 6 9
9 8 8 8 8 9 9 9 8 9 10 10 10 11 12 11 11 12 13 14 16 18 20 21 21 21 21 22 24 25 25 26 28 29 28 27 26 26 26 26 26 26 26 27 27 25 24 22 20 18 16 13 13 13 10 6 2 3 6 6 6 7 9
10 9 8 7 8 8 7 7 6 6 7 7 8 9 10 11 11 12 12 12 12 13 16 18 19 20 20 21 23 24 24 26 28 29 29 28 27 27 28 27 27 27 26 26 28 27 25 24 22 20 18 16 14 14 14 10 6 9 13 11 8 9 9
12 11 9 8 8 8 7 6 5 4 4 5 5 6 8 10 10 11 11 10 10 9 10 12 14 16 17 19 20 21 23 25 27 28 28 28 28 28 28 29 29 28 27 26 27 27 26 25 24 22 21 19 17 16 16 14 12 11 15 15 13 11 10
13 12 11 9 8 8 7 7 6 5 5 5 4 3 4 6 6 6 7 7 7 7 7 8 10 12 14 17 17 18 20 23 25 27 28 29 29 29 29 30 31 30 28 27 27 28 27 26 25 24 23 21 20 19 17 16 16 13 14 17 17 14 11
12 11 11 10 9 8 7 7 6 6 6 5 5 4 3 5 5 4 4 5 5 6 8 9 10 11 12 13 14 16 18 21 24 26 27 29 30 29 29 30 31 31 29 27 27 29 29 28 25 24 23 22 22 20 19 18 17 15 14 15 17 17 14
13 12 12 10 9 8 7 7 7 7 7 6 6 5 5 5 6 5 6 6 6 7 8 9 10 10 10 11 12 15 17 20 23 24 26 27 28 28 29 30 31 30 28 28 28 28 29 28 26 23 21 22 22 21 21 20 19 17 15 14 15 16 15
16 15 13 11 10 10 9 9 8 8 8 9 8 7 6 6 6 5 5 5 6 7 8 8 9 9 10 11 13 15 17 19 21 22 24 26 26 27 28 29 30 29 28 28 28 28 28 27 25 22 21 21 22 22 22 22 21 19 18 17 14 12 11
18 16 15 14 13 12 11 11 11 10 10 10 9 8 7 7 6 6 6 7 9 10 11 12 13 13 13 13 14 15 16 18 19 21 22 24 25 26 27 28 29 29 28 29 28 28 28 27 25 23 22 22 23 23 23 22 21 20 21 19 15 11 10
20 18 17 15 13 12 12 13 13 12 12 12 11 10 8 7 7 7 9 10 12 14 15 16 18 18 17 16 16 17 18 19 20 20 21 22 24 25 27 28 29 29 28 28 28 28 28 27 25 23 23 23 23 23 24 23 22 22 22 19 16 16 14
21 19 16 14 12 12 13 13 12 12 12 12 11 10 8 7 7 9 10 12 13 14 14 15 17 16 15 15 15 17 20 21 22 22 21 21 22 24 26 27 29 29 29 28 28 29 29 28 27 26 24 24 24 24 24 24 24 24 23 20 18 17 15
21 18 15 13 13 13 12 12 12 12 12 11 11 10 8 7 7 8 11 13 13 14 13 12 12 12 12 12 12 13 16 19 21 22 23 23 22 23 24 25 27 28 29 29 29 29 29 28 28 29 28 27 26 26 26 26 25 24 22 20 19 16 14
20 17 15 14 15 13 13 12 11 11 12 13 13 12 9 8 7 8 11 13 14 14 12 10 9 9 10 11 12 13 14 15 18 20 21 23 25 26 26 26 26 26 27 29 31 31 31 30 29 29 30 29 29 28 27 26 26 25 23 21 20 18 16
19 16 15 15 16 15 14 13 12 11 12 13 13 11 9 9 9 9 11 13 14 14 12 10 9 10 11 12 13 15 16 16 18 18 18 20 24 27 28 28 27 26 26 27 29 31 32 32 32 31 30 31 31 30 29 29 28 27 26 24 23 22 21
19 16 15 15 16 16 15 15 14 12 12 13 13 11 11 11 11 10 11 12 14 14 14 12 11 12 12 12 13 16 17 18 19 19 18 18 20 23 26 28 29 28 27 27 28 29 30 31 32 32 31 32 32 32 32 32 31 30 30 28 25 25 25
19 18 17 16 16 17 17 16 16 13 12 13 12 12 13 13 12 12 11 12 13 14 14 15 14 14 13 13 13 15 16 17 18 19 19 19 21 21 22 26 28 29 28 26 26 27 29 30 30 31 33 34 34 34 35 35 36 35 35 33 29 30 30
20 20 19 16 16 18 18 18 16 13 12 12 12 14 15 15 14 13 13 12 12 14 15 15 16 15 14 14 14 14 15 16 17 18 19 20 21 22 22 23 26 28 29 27 26 27 28 28 28 30 33 34 36 36 36 36 38 38 37 36 33 33 33
22 21 19 17 18 19 19 18 16 13 12 12 13 14 15 15 15 14 13 12 12 14 15 15 15 15 15 15 14 14 15 15 16 17 18 20 21 22 22 23 24 27 28 28 28 28 28 27 27 29 32 33 34 36 36 37 36 33 32 33 33 34 33
23 21 19 19 20 20 19 17 14 12 12 12 13 14 14 15 15 15 13 12 12 14 14 13 15 16 16 15 15 14 14 14 15 16 18 20 21 22 21 21 23 26 27 28 29 29 28 28 28 29 30 31 32 33 34 35 34 31 30 31 31 32 32
24 22 21 21 21 20 18 16 14 13 13 13 13 14 16 16 16 14 13 12 12 13 13 13 15 16 16 15 15 14 13 13 13 14 16 18 19 19 19 18 19 22 25 28 29 28 27 28 29 31 31 31 31 32 32 31 30 29 29 29 29 29 29
25 24 23 23 22 20 19 17 15 14 13 14 14 15 16 16 15 14 13 12 11 12 13 14 15 16 16 14 14 14 13 13 13 13 13 14 15 15 15 15 15 18 21 25 26 26 27 28 30 32 34 33 32 31 30 29 27 26 24 25 26 27 28
26 25 25 24 22 21 20 18 15 14 13 14 14 15 16 16 16 16 15 13 12 11 12 13 15 16 15 14 13 13 13 14 14 14 12 11 11 11 12 13 12 14 17 20 21 22 25 28 31 32 34 37 36 32 32 32 32 31 30 28 27 27 27
27 26 26 24 23 21 19 17 15 14 13 13 13 15 16 16 17 17 16 15 12 11 11 12 14 15 15 14 13 13 13 13 14 13 12 10 9 8 9 9 10 12 14 16 18 20 23 27 30 28 27 31 36 35 34 34 33 34 34 31 28 27 26
27 27 26 24 22 20 18 16 14 13 13 13 14 16 16 16 17 18 16 14 11 10 10 12 13 14 14 13 13 13 13 12 11 12 11 10 8 6 5 5 7 10 12 13 17 21 21 22 25 24 21 25 32 34 33 33 32 32 32 30 27 24 23
27 26 25 24 21 19 17 15 13 13 13 14 15 16 15 13 14 15 14 12 11 10 11 12 14 14 14 13 12 13 13 11 9 10 12 10 8 5 4 3 4 7 11 12 15 18 19 19 22 22 22 25 30 32 32 32 31 31 31 30 28 25 24
27 26 24 22 19 17 16 14 14 14 14 14 16 16 13 12 12 12 11 11 12 12 12 13 14 15 14 13 12 12 12 11 9 10 12 11 8 4 3 3 3 6 11 13 13 14 14 16 17 19 21 25 29 31 31 31 31 32 32 31 31 29 26
27 25 23 20 17 16 15 15 15 15 15 14 15 15 13 13 13 12 10 11 12 13 12 14 15 16 14 13 12 12 11 11 10 10 11 9 5 2 1 2 1 6 11 12 12 12 12 13 15 18 23 26 28 30 32 31 30 32 33 32 31 29 26
Wind_Direction
233 235 237 238 239 240 242 243 244 243 242 241 238 239 241 240 239 242 246 245 242 240 238 237 236 237 238 238 238 239 240 238 234 231 226 217 212 214 214 218 229 234 235 236 232 223 177 204 252 243 240 244 248 250 250 246 242 241 243 249 257 267 278
241 245 248 251 250 250 250 249 249 249 249 247 243 242 242 241 241 243 247 246 243 241 240 240 239 239 238 239 239 238 239 240 239 238 234 230 227 225 221 219 223 227 229 234 236 227 206 195 249 251 236 245 261 260 251 245 244 246 250 255 258 265 278
245 250 254 256 255 255 253 250 250 251 253 252 248 244 242 240 241 245 247 247 245 244 244 243 242 241 240 240 240 240 240 241 241 242 240 240 240 238 233 224 215 215 220 221 211 210 205 201 221 248 246 250 269 278 272 255 250 253 255 257 258 262 272
245 250 254 255 254 252 248 246 248 251 253 255 253 249 245 242 241 243 245 247 249 248 247 247 246 245 244 242 242 242 241 240 242 246 245 243 243 243 241 237 232 226 222 218 208 205 204 196 192 238 254 258 266 276 287 271 253 257 259 258 256 261 272
246 248 253 257 257 251 246 243 245 248 251 254 253 251 249 245 243 243 244 245 248 248 248 249 250 251 250 247 245 243 242 241 242 245 247 244 243 244 244 244 244 242 236 230 225 228 234 224 207 212 244 261 268 274 286 278 268 269 265 258 253 262 272
246 249 252 255 257 256 250 246 245 247 249 250 251 250 251 250 247 246 246 246 246 247 248 250 251 252 253 251 247 245 244 244 244 244 246 248 248 249 251 250 249 247 242 235 232 241 249 239 217 206 231 246 247 266 289 287 283 282 271 262 256 262 263
245 248 249 249 254 257 254 250 248 249 250 251 251 253 259 261 256 251 248 246 245 246 247 249 252 253 253 252 250 248 247 248 248 247 247 250 252 254 255 254 251 249 244 238 236 243 247 238 220 207 214 228 241 257 275 278 280 279 273 268 255 247 245
241 243 245 250 252 253 252 249 246 246 247 249 251 255 261 264 263 258 253 251 248 246 245 246 249 252 252 252 252 252 251 251 250 249 249 251 253 255 256 254 252 251 247 240 236 239 244 243 237 226 210 197 241 277 280 270 269 270 272 270 252 237 226
228 236 245 251 251 250 251 249 247 246 246 248 250 253 256 257 259 258 258 257 252 250 249 247 246 248 249 250 251 252 253 253 252 252 252 252 254 256 257 256 254 253 251 242 235 237 243 248 249 243 226 206 200 252 314 302 266 269 271 256 237 228 213
212 226 237 241 243 245 246 245 246 245 244 247 251 255 257 257 258 258 260 260 254 251 253 251 249 249 249 250 250 250 252 253 254 255 255 255 256 257 257 257 257 257 255 247 239 238 241 247 250 247 239 225 207 197 213 272 263 344 322 258 238 223 204
209 217 226 232 239 245 246 246 248 246 244 245 248 253 257 259 260 260 261 262 256 253 253 254 254 254 253 253 252 251 252 253 253 254 255 257 260 260 258 257 257 258 257 253 249 246 241 241 245 246 243 236 230 220 195 190 256 53 20 259 246 231 212
208 211 217 225 237 244 247 249 251 252 250 249 250 250 250 251 253 254 257 260 259 257 256 255 257 257 256 256 256 255 253 251 251 251 251 253 258 260 259 256 255 256 257 256 255 252 246 240 241 246 245 238 237 230 205 174 173 238 235 235 233 225 214
208 209 208 217 229 233 237 240 246 251 249 251 254 252 250 250 250 251 254 256 259 259 259 257 257 258 258 257 258 258 257 254 253 252 251 252 254 257 257 256 256 256 257 258 257 256 251 244 242 245 246 241 233 227 219 201 196 238 241 235 236 232 219
214 215 214 215 220 225 231 233 236 240 238 245 252 254 257 254 252 255 256 257 260 262 265 264 261 260 261 261 261 262 262 260 258 255 254 254 254 254 255 256 257 257 257 257 258 258 254 248 245 244 246 243 232 228 229 216 207 232 242 235 233 235 228
218 218 215 210 213 219 223 223 228 233 235 243 245 244 252 245 241 250 253 254 255 255 260 262 262 264 265 266 266 266 266 265 262 260 257 256 255 253 253 253 255 257 256 256 256 257 255 250 245 244 246 243 236 232 233 224 215 220 232 234 230 226 225
210 207 207 209 214 216 216 220 228 236 239 239 229 216 218 216 208 208 211 215 220 228 238 244 247 252 257 263 268 269 269 266 262 260 257 256 255 253 252 251 252 254 254 255 255 254 254 251 246 245 245 242 238 234 231 227 221 216 223 236 233 223 219
203 202 206 210 215 215 216 221 225 231 234 226 215 211 216 213 204 200 199 200 206 216 228 236 241 241 242 249 257 263 267 266 262 259 258 258 257 254 253 251 251 252 252 251 252 251 250 250 246 243 242 238 235 232 230 227 225 223 226 238 243 230 218
202 202 203 204 208 211 213 218 221 226 226 222 220 222 225 224 218 215 216 221 232 241 248 251 250 243 237 238 244 250 257 261 262 262 261 261 260 258 256 255 254 252 250 247 247 247 247 246 243 239 236 235 231 229 229 226 225 228 227 231 241 237 219
200 199 199 199 202 207 213 219 221 219 218 221 225 228 231 236 242 250 260 267 272 277 279 278 275 268 257 247 243 246 252 256 259 260 260 260 260 260 258 257 256 252 248 245 243 243 243 241 239 235 230 228 226 225 223 220 220 222 222 224 228 227 217
198 198 198 199 204 212 218 220 218 215 217 221 225 230 238 251 267 279 285 287 286 287 287 284 281 277 271 262 253 249 251 254 256 258 258 257 257 257 257 257 257 253 249 246 243 241 239 235 233 230 226 224 223 221 219 217 218 217 216 217 217 219 214
195 197 197 201 209 214 214 216 217 217 218 219 220 228 240 256 274 289 294 292 292 295 293 282 275 273 271 267 261 255 254 255 256 257 258 258 258 257 255 254 255 254 251 248 244 240 238 235 231 227 225 224 223 221 217 215 215 214 212 210 209 214 212
193 196 196 200 203 205 210 215 219 218 217 216 216 221 232 246 265 284 290 292 296 302 296 279 273 277 277 275 272 265 262 261 261 260 259 259 260 260 258 255 253 253 252 249 245 242 241 239 236 231 228 225 222 220 216 212 210 207 204 202 203 204 198
193 192 194 198 197 201 209 209 207 211 215 215 214 217 225 237 252 271 281 286 294 299 290 276 282 295 295 293 291 284 277 271 270 269 264 261 259 259 260 259 256 254 252 250 247 245 245 245 243 239 235 231 226 219 212 208 205 202 198 195 195 197 192
190 189 193 198 198 204 208 201 196 205 213 213 213 219 228 239 248 260 271 280 288 292 285 277 288 301 301 300 300 297 293 285 280 277 273 266 261 258 258 260 260 257 253 251 248 246 246 246 244 241 238 237 233 224 215 209 203 199 198 197 195 197 197
187 188 193 197 201 207 206 196 194 201 206 206 211 224 238 245 250 254 262 273 282 288 288 284 288 296 299 300 300 299 298 295 292 287 282 276 270 264 260 258 259 259 256 252 248 246 246 246 245 242 238 237 235 231 227 223 215 206 201 199 196 199 201
186 189 193 197 201 202 196 192 195 198 197 200 214 233 242 245 248 252 258 267 276 285 289 288 287 291 296 298 299 298 299 302 302 298 294 289 283 277 268 260 257 257 257 253 248 245 244 244 245 243 239 236 234 232 232 232 232 226 217 207 200 201 202
188 191 193 196 196 192 189 190 194 195 196 206 223 236 240 240 243 248 254 262 274 282 284 284 285 289 293 296 296 296 297 301 304 302 298 293 288 284 277 267 258 253 254 254 251 247 245 244 245 243 240 236 232 229 228 228 229 228 222 215 209 206 204
188 189 191 192 189 187 190 193 196 200 211 225 235 239 241 241 242 247 252 260 276 284 282 279 283 289 293 294 294 295 295 296 301 302 296 288 284 282 279 272 262 254 252 252 251 249 247 245 243 241 237 232 227 223 221 220 219 217 216 216 214 209 204
188 187 187 186 185 187 193 197 201 208 219 230 238 241 241 242 244 246 251 262 279 286 283 281 286 292 294 293 293 298 301 300 301 301 296 289 283 282 282 277 267 258 253 252 252 249 246 242 238 232 225 217 213 211 210 212 212 211 213 213 211 207 199
188 186 184 184 186 190 195 198 202 211 220 227 235 237 237 239 243 246 250 261 278 287 288 289 293 296 296 292 293 301 308 307 303 300 299 295 288 284 285 282 273 264 256 252 251 248 241 233 226 219 211 201 196 196 198 202 203 204 209 208 203 199 191
188 186 186 187 190 193 196 199 206 214 223 230 236 237 237 238 241 243 246 255 270 284 292 296 297 298 297 292 291 298 307 309 306 299 299 299 292 283 280 277 273 267 256 250 248 242 232 222 213 207 200 189 182 181 181 183 182 181 185 184 179 178 174
190 189 190 192 195 197 198 201 208 216 223 230 237 239 235 235 239 240 241 247 260 279 295 301 300 300 298 292 287 292 301 307 305 298 296 299 295 284 276 270 265 259 251 247 243 233 221 211 202 198 193 183 174 167 166 167 165 162 162 159 158 160 161
194 194 195 197 199 201 201 203 210 218 223 227 236 237 231 233 240 239 236 242 255 274 296 306 306 303 300 291 284 287 296 304 305 300 296 297 298 293 283 272 260 250 242 237 230 218 209 204 197 194 191 178 165 155 152 154 155 154 151 147 145 149 151
197 198 200 200 200 201 203 208 216 223 225 226 232 234 232 238 242 235 232 240 254 274 295 307 310 309 306 294 281 282 291 298 302 302 298 294 294 293 285 275 264 246 229 219 211 201 196 195 190 185 181 166 152 146 143 142 143 142 139 135 134 135 137
198 199 199 199 199 199 203 211 221 226 227 229 233 237 238 238 233 226 229 242 255 270 287 298 305 312 312 299 279 276 286 292 292 296 300 296 291 285 264 264 269 241 214 199 196 194 190 188 182 179 177 165 153 147 143 139 139 139 135 133 133 132 134
196 196 196 196 198 200 203 211 220 225 227 230 233 235 234 227 220 223 235 246 254 266 279 289 298 308 313 302 276 266 278 285 279 285 297 298 296 292 266 269 275 232 207 189 184 189 191 188 183 178 173 161 151 147 143 139 139 138 135 135 135 135 137
194 194 192 192 197 203 207 213 219 223 226 228 231 234 232 226 226 235 247 250 253 262 274 285 292 301 309 301 273 259 269 276 270 276 292 296 297 309 305 307 245 196 187 173 165 173 180 182 178 168 158 151 146 144 143 142 141 139 136 135 135 135 138